TIBA-1

Last updated on Fri Nov 07 2025 00:02:51 GMT+0000 (Coordinated Universal Time)

1 44800U 19080A 25310.27753205 .00000165 00000+0 00000+0 0 9996 2 44800 0.0594 9.3138 0002408 218.7724 313.0860 1.00272230 21826
UTC large
Height (km)
Speed (km/s)
/
Latitude / Longitude
Inclination (degrees)
Orbital Period (minutes)
Azimuth
Elevation
Range (km)
Doppler Factor

Next 0 passes for location: London (51.5072 / 0.1276)

Sorry there are no passes over London.